City of Derry Airport

Airport
ICAO code: 
EGAE
IATA Code: 
LDY
Summary
ICAO Region: 
EUR
Territory: 
Location: 
Eglinton, County Londonderry, Northern Ireland
Serving: 
Derry
Elevation: 
23 ft
Coordinates: 
Aerial View: 
55° 2' 33.122" N, 7° 9' 45.039" W
Metar
Observation
EGAE 251620Z 21005KT 170V250 9999 SCT027 BKN040 09/05 Q1031
Station
Eglinton / Londonderr
Date/Time
2022-01-25 16:20:00
Wind direction
210°
Wind speed
05 kts
Lowest cloud amount
scattered clouds
Temperature
9°C
Dew point
5°C
Humidity
76%
QNH
1031 hPa
Weather condition
n/a

Description

Airport serving the city of Derry/Londonderry in the Northern Ireland, part of the UK.

Climatology

Temperate Marine climate/Oceanic climate (Köppen climate classification Cfb). Moderately cool summer and comparatively warm winter.

Runways

Designator Length Width Surface Rops
2/20 1205 45 ASP Yes/Yes
8/26 1852 45 ASP Yes/Yes
Airport map: 
Aerial View: 

SKYbrary Partners:

Safety knowledge contributed by: